User: anonymous   Login
Location: Unspecified
(0.0000°N, 0.0000°E)
Time: 18:59:23
(UTC+02:00)
Language:

Cosmos 773 Rocket - Orbit

View from above orbital plane
View from above orbital plane
View from above satellite
View from above satellite

Ground track
Ground track

The orbit data is extracted from the following two-line orbital elements,

1  8344U 75094B   17083.87387569 -.00000032 +00000-0 -17995-5 0  9999
2  8344 074.0541 280.9881 0022360 205.4699 154.5355 14.39084987173299
Epoch (UTC): 24 March 2017 20:58:22
Eccentricity: 0.0022360
inclination: 74.0541°
perigee height: 745 km
apogee height: 777 km
right ascension of ascending node: 280.9881°
argument of perigee: 205.4699°
revolutions per day: 14.39084987
mean anomaly at epoch: 154.5355°
orbit number at epoch: 17329

The dashed part of the orbit path shows where the satellite is in the earth's shadow,  

DLR